Погода в Карши

Погода в Карши : погода сейчас, прогноз погоды и архив. Всё, что Вы хотите узнать о погоде в Карши!

Хотите узнать прогноз погоды в Карши? Тогда Вам сюда: Погода в Карши

Поиск расширенной информации на нашем сайте:

Другие новости

Новости СМИ2

Главная страница сайта

Новости сайта

03.07.2017

Напоминаем, что на нашем специализированном сайте Метеоцентр.Азия вы можете получить высокодетализированные автоматические прогнозы погоды по пунктам России, СНГ и мира в авиационном формате (включающие направление и скорость ветра, видимость, явления погоды, количество и форму облачности, нижнюю и верхнюю границу облачности).


Погода в Карши - сегодня

Время (UTC), дата Ветер
(°,м/с) 
Видим.   Явления Облачность Т
(°С)
Тd
(°С)
f(%) Тe
(°С)
Pmin
(гПа)
dP
(гПа)
Po
(мм)
O2
(г/м3)
Тmin Tmax R s Состояние
почвы
15 17.07.18 010 (С) 10 км    ясно 
+36.5 +10.3 21 +39  994.5  -0.2  716  253    +40.8       
18 17.07.18 360 (С) 10 км    ясно 
+29.8 +12.1 34 +35  996.3  -0.7  716  258    +40.8       
21 17.07.18 010 (С) 10 км    ясно 
+28 +9.8 32 +30  995.6  -0.8  716  260           
00 18.07.18 нст () 10 км    ясно 
+26 +10.3 37 +28  996.3  0.4  716  262           
03 18.07.18 тихо ()   10 км    ясно 
+29.4 +11.7 34 +34  996.3  0.7  716  258           
06 18.07.18 нст () 10 км    ясно 
+36.6 +14 26 +45  996.2  0.9  717  252  +26         
09 18.07.18 340 (С) 10  10 км    ясно 
+41 +9.5 15 +42  994.8  -0.9  716  249           
12 18.07.18 330 (СЗ) 10 км    ясно 
+41.2 +13.3 19 +48  994.3  -0.3  716  248           
15 18.07.18 330 (СЗ) 10 км    ясно 
+37 +16.2 29 +49  994.7  -0.1  716  251    +42.4       
18 18.07.18 360 (С) 10 км    ясно 
+31.6 +10.9 28 +35  996.3  0.7  717  257    +42.4       
21 18.07.18 010 (С) 10 км    ясно 
+27 +9.8 34 +29  995.6  -0.8  716  261           
00 19.07.18 нст () 10 км    ясно 
+26.5 +10.3 36 +29  996.3  0.4  717  261           
03 19.07.18 010 (С) 10 км    ясно 
+28.5 +14.2 42 +37  998.2  0.5  718  259           
06 19.07.18 030 (СВ) 10 км    ясно 
+34.9 +14.4 29 +44  996.7  -0.5  717  253  +26.5         
09 19.07.18 340 (С) 10 км    ясно 
+41.4 +13.4 19 +49  995  -1  717  248           
12 19.07.18 340 (С) 10 км    ясно 
+40.6 +10.9 17 +44  994.4  -0.6  716  249           
15 19.07.18 340 (С) 10 км    ясно 
+37.2 +7.1 16 +37  994.9  716  253    +42.7       
18 19.07.18 360 (С) 10 км    ясно 
+32.4 +10.2 26 +35  996.4  0.9  717  256    +42.7       
21 19.07.18 350 (С) 10 км    ясно 
+29.5 +9.5 29 +31  996.6  -0.3  717  259           
00 20.07.18 340 (С) 10 км    ясно 
+23.3 +12.3 50 +29  997.2  -0.2  716  264           
03 20.07.18 020 (С) 10 км    ясно 
+28.4 +12.3 37 +34  996.9  0.4  717  259           
06 20.07.18 310 (СЗ) 10 км    ясно 
+37.6 +10.6 20 +40  995.4  -0.3  717  252  +23.3         
09 20.07.18 360 (С) 10 км    ясно 
+41.7 +7.1 12 +42  994.8  -0.1  716  249           
12 20.07.18 320 (СЗ) 10 км    ясно 
+41.4 +8.2 14 +41  993.5  -1.2  716  249           
15 20.07.18 010 (С) 10 км    ясно 
+36.4 +10.9 21 +40  994.9  0.8  716  253    +42.5       
Время (UTC), дата Ветер
(°,м/с) 
Видим.   Явления Облачность Т
(°С)
Тd
(°С)
f(%) Тe
(°С)
Pmin
(гПа)
dP
(гПа)
Po
(мм)
O2
(г/м3)
Тmin Tmax R s Состояние
почвы

Для получения пояснительной информации подведите курсор к названию столбца.

ПОГОДА в Карши - архив

Всё, что Вы хотите узнать о погоде в Карши - удобно и подробно!

Выберите нужную дату (начиная с 1 января 2015* года) и нажмите кнопку "Найти".
Будут отображены архивные сводки погоды по пункту Карши, начиная с указанной даты.


Отображать данные в формате CSV (для использования в таблицах Excel)


Внимание! Наш архив погоды предназначен исключительно для личного некоммерческого использования в познавательных целях. Если Вам необходимы официальные справки о состоянии погоды (для производственных, юридических, коммерческих и т.п. целей), обращайтесь в органы Росгидромета.

*Примечание: данная дата относится к архиву по метеостанциям СССР (Россия, СНГ, Балтия).
Архив по метеостанциям Зарубежной Европы и Азии (кроме Китая) хранится 10 дней, по другим регионам земного шара (Китай, Африка, Америка, Австралия, Океания) - 1 день.

Карши - район местоположения метеостанции


Название, широта, долгота, высота метеостанции:
Карши (аэропорт) 38.8°ш. 65.7°д. 376 м над ур. моря [Узбекистан]

Дополнительная информация

В oтличие oт бoльшинства пoгoдных сайтoв мы публикуем пoдрoбную метеoинфoрмацию в детальнoм прoфессиoнальнoм фoрмате.

Характеристики температуры и влажнoсти вoздуха измеряются на высoте 2 м в тени вдали oт зданий и деревьев.
Скoрoсть ветра измеряется на высoте 10 м (на урoвне рoста челoвека скoрoсть ветра ниже в 1.5-2 раза). Если метеoстанция нахoдится в гoрoде или в лесу, тo скoрoсть ветра занижена на 2-4 м/с пo сравнению с oткрытым местoм. Скoрoсть ветра над акватoриями крупных рек и oзёр, а также на вершинах хoлмoв на 2-5 м/с выше, чем в oбычных услoвиях.
Атмoсфернoе давление в разных тoчках местнoсти мoжет значительнo oтличаться oт давления на метеoстанции, в зависимoсти oт услoвий рельефа (при пoдъёме на 10 м давление пoнижается примернo на 1 мм рт.ст.).